Location: Mascot Post Office (historical)
(40.2645°N, 99.5462°W)
Time: 09:50:57
(UTC+00:00)

NOSS 3-4 (C) - Pass Details

Date: 28 October 2020
Orbit: 886 x 1326 km, 63.4° (Epoch: 06 November)

Event Time Altitude Azimuth Distance (km) Brightness Sun altitude
Rises 04:25:09 0° 314° (NW) 3,943 7.3 -52.8°
Reaches altitude 10° 04:28:12 10° 302° (WNW) 3,051 6.5 -53.3°
Enters shadow 04:28:59 13° 298° (WNW) 2,851 6.3 -53.4°
